Regional Weather Roundup
Issued by NWS

Home | Current Version | Previous Version | Text Only | Print | Product List | Glossary On
Versions: 1 2 3 4 5 6 7 8 9 10 11 12 13 14 15 16 17 18 19 20 21 22 23 24 25 26 27 28 29 30 31 32 33 34 35 36 37 38 39 40 41 42 43 44 45 46 47 48 49 50
000
ASUS45 KREV 041210
RWRNV
NEVADA REGIONAL WEATHER ROUNDUP
NATIONAL WEATHER SERVICE RENO NV
400 AM PST WED MAR 04 2015

NOTE: "FAIR" INDICATES FEW OR NO CLOUDS BELOW 12,000 FEET WITH NO
SIGNIFICANT WEATHER AND/OR OBSTRUCTIONS TO VISIBILITY.

NVZ001-003-004-041300-
WESTERN NEVADA

CITY           SKY/WX    TMP DP  RH WIND       PRES   REMARKS
RENO           PTCLDY    27  17  66 NW3       30.14R
6HR MIN TEMP:  27; 6HR MAX TEMP:  34;

CARSON CITY    FAIR      25  18  74 CALM      30.14S
MINDEN         FAIR      14  10  85 SE3       30.15
SLIDE MTN        N/A     21 -11  23 E22         N/A
PYRAMID LAKE     N/A     34 N/A N/A SW3         N/A
FALLON         CLEAR     20  14  77 S3        30.14R
6HR MIN TEMP:  20; 6HR MAX TEMP:  31;

LOVELOCK       PTCLDY    17   9  70 CALM      30.15R
6HR MIN TEMP:  16; 6HR MAX TEMP:  28;

HAWTHORNE      CLEAR     28  18  64 CALM      30.14R
$$

NVZ002-CAZ072-073-041300-
NORTHERN AND CENTRAL SIERRA

CITY           SKY/WX    TMP DP  RH WIND       PRES   REMARKS
S. LAKE TAHOE  PTCLDY    17  10  74 S6        30.08S
6HR MIN TEMP:  17; 6HR MAX TEMP:  28;

TRUCKEE        CLEAR     12  10  92 CALM      30.11R
SQUAW VLY 8000   N/A     18  16  93 E3          N/A
BLUE CANYON    CLEAR     35   6  29 NE9G17    30.03R
MAMMOTH LAKES  FAIR      16   7  67 N3        30.08S
BRIDGEPORT     FAIR      13   6  74 CALM      30.07F
$$

NVZ030-031-036-041300-
NORTHERN NEVADA

CITY           SKY/WX    TMP DP  RH WIND       PRES   REMARKS
ELKO           CLEAR     16  11  80 CALM      30.11R
6HR MIN TEMP:  14; 6HR MAX TEMP:  21;

WINNEMUCCA     PTCLDY    12   8  84 SW5       30.15R
6HR MIN TEMP:  12; 6HR MAX TEMP:  20;

WENDOVER       PTCLDY    27   9  46 NW9       30.09S
$$

NVZ035-037-041300-
CENTRAL NEVADA

CITY           SKY/WX    TMP DP  RH WIND       PRES   REMARKS
ELY            PTCLDY     4   1  88 S9        30.06R
6HR MIN TEMP:   4; 6HR MAX TEMP:  16;

EUREKA           N/A     10   5  80 S8        30.10R
6HR MIN TEMP:   7; 6HR MAX TEMP:  13;

$$

NVZ013-014-041300-
SOUTH CENTRAL NEVADA

CITY           SKY/WX    TMP DP  RH WIND       PRES   REMARKS
TONOPAH        CLEAR     22  12  65 N15       30.08S
6HR MIN TEMP:  22; 6HR MAX TEMP:  29;

$$

NVZ017-020-022-041300-
SOUTHERN NEVADA

CITY           SKY/WX    TMP DP  RH WIND       PRES   REMARKS
LAS VEGAS      CLEAR     45  16  31 NW12      30.01S
6HR MIN TEMP:  45; 6HR MAX TEMP:  51;

N. LAS VEGAS   CLEAR     43  16  33 N13       30.05S
6HR MIN TEMP:  43; 6HR MAX TEMP:  50;

NELLIS AFB     CLEAR     42  24  49 NW3       30.06R
6HR MIN TEMP:  42; 6HR MAX TEMP:  51;

HENDERSON      CLEAR     42  20  41 N12       30.06S
6HR MIN TEMP:  41; 6HR MAX TEMP:  48;

MERCURY        CLEAR     37  15  40 NE15      30.05S
6HR MIN TEMP:  34; 6HR MAX TEMP:  41;

$$


USA.gov is the U.S. government's official web portal to all federal, state and local government web resources and services.